Regional Weather Roundup
Issued by NWS

Home | Current Version | Previous Version | Graphics & Text | Print | Product List | Glossary On
Versions: 1 2 3 4 5 6 7 8 9 10 11 12 13 14 15 16 17 18 19 20 21 22 23 24 25 26 27 28 29 30 31 32 33 34 35 36 37 38 39 40 41 42 43 44 45 46 47 48 49 50
000
ASUS43 KDMX 261907
RWRIA

WEATHER ROUNDUP FOR IOWA
NATIONAL WEATHER SERVICE DES MOINES IA
200 PM CDT THU MAR 26 2015

NOTE: "FAIR" INDICATES FEW OR NO CLOUDS BELOW 12,000 FEET WITH NO
SIGNIFICANT WEATHER AND/OR OBSTRUCTIONS TO VISIBILITY.

* - THESE STATIONS ARE NOT NWS STATIONS...THUS NOT UNDER NWS
QUALITY CONTROL.  THEY ALSO DO NOT REPORT WEATHER SUCH
AS PRECIPITATION OR FOG.

IAZ001>003-012>014-020>022-031>034-043>046-262000-
   NORTHWEST IOWA

CITY           SKY/WX    TMP DP  RH WIND       PRES   REMARKS
CARROLL *      PTSUNNY   43  23  45 NW14G23   30.13F
CHEROKEE *     CLOUDY    41  25  52 N14       30.15F
DENISON *      MOSUNNY   43  23  45 N14       30.12F
LE MARS *      PTSUNNY   41  23  48 N14       30.16F
ORANGE CITY *  CLOUDY    41  25  52 NW12      30.15F
SHELDON *      CLOUDY    37  25  60 N13       30.14S WCI  29
SIOUX CITY     PTSUNNY   42  21  43 N12       30.17S
SPENCER        CLOUDY    38  23  55 N16       30.15F WCI  29
STORM LAKE *   PTSUNNY   41  23  48 N17       30.14F
$$

IAZ055>058-069>071-079>083-090>094-262000-
   SOUTHWEST IOWA

CITY           SKY/WX    TMP DP  RH WIND       PRES   REMARKS
ATLANTIC *     MOSUNNY   46  25  42 NW14G23   30.14F
AUDUBON *      SUNNY     45  21  39 N9G18     30.14F
CLARINDA *     SUNNY     46  27  46 N14       30.16F
COUNCIL BLFS * SUNNY     46  25  42 NW13      30.14F
CRESTON *      MOSUNNY   45  27  49 N17       30.12F
HARLAN  *      SUNNY     45  25  45 NW14G20   30.17F
LAMONI         MOSUNNY   47  25  42 NW16G22   30.11F
RED OAK *        N/A     46  25  42 N14       30.14F
SHENANDOAH *   SUNNY     46  25  42 NW8G18    30.16F
$$

IAZ047>049-059>061-072>074-084-262000-
   CENTRAL IOWA

CITY           SKY/WX    TMP DP  RH WIND       PRES   REMARKS
AMES           PTSUNNY   44  23  43 N14G25    30.12F
ANKENY *       PTSUNNY   45  23  42 N18       30.12F
CHARITON *     SUNNY     45  25  45 NW25      30.11F
DES MOINES     PTSUNNY   45  22  40 N18G24    30.12F
GRINNELL*      MOSUNNY   43  25  49 NW21G28   30.10F
KNOXVILLE *    PTSUNNY   45  23  42 NW18G25   30.10S
MARSHALLTOWN   PTSUNNY   43  25  49 NW21G35   30.10F
PELLA *        MOSUNNY   45  28  53 NW18G30   30.11F
PERRY *        PTSUNNY   43  27  52 N14       30.13F
$$

IAZ004>006-015-016-023>025-035-036-262000-
   NORTH CENTRAL IOWA

CITY           SKY/WX    TMP DP  RH WIND       PRES   REMARKS
ALGONA *       MOSUNNY   37  23  56 NW16G26   30.14F WCI  28
CLARION *      MIX PCPN  39  27  60 NW17G29   30.12F WCI  30
ESTHERVILLE    CLOUDY    35  23  61 NW15      30.14F WCI  25
FORT DODGE *   CLOUDY    39  25  56 NW9G16    30.14F WCI  33
MASON CITY     MOSUNNY   37  21  52 NW20      30.12F WCI  27
FOREST CITY *  PTSUNNY   36  21  55 NW17G25   30.12F WCI  25
IOWA FALLS *   PTSUNNY   41  27  56 NW23G29   30.12F
$$

IAZ007>011-017>019-026>030-037>042-050>054-066-262000-
   NORTHEAST IOWA

CITY           SKY/WX    TMP DP  RH WIND       PRES   REMARKS
CEDAR RAPIDS   SUNNY     44  23  43 NW23G30   30.05F
CHARLES CITY * CLOUDY    34  27  75 N18G25    30.10F WCI  23
CLINTON *      SUNNY     43  25  49 NW16G26   30.04S
DECORAH *      CLOUDY    30  19  64 NW17G25   30.06S WCI  18
DUBUQUE        SUNNY     39  22  50 NW17G26   30.02S WCI  30
MONTICELLO *   MOSUNNY   41  25  52 W22G31    30.03F
OELWEIN *      PTSUNNY   36  25  64 NW21G28   30.09R WCI  24
WATERLOO       MOSUNNY   41  23  48 N21G29    30.08S
$$

IAZ064-065-067-068-078-262000-
   EAST CENTRAL IOWA

CITY           SKY/WX    TMP DP  RH WIND       PRES   REMARKS
DAVENPORT      MOSUNNY   44  24  45 NW18G28   30.02F
IOWA CITY      SUNNY     45  22  40 NW18G30   30.07F
MT. PLEASANT * SUNNY     45  23  42 NW18G26   30.06F
MUSCATINE *    SUNNY     46  21  36 NW15G25   30.06S
QUAD CITIES    SUNNY     45  23  42 N21G30    30.02F
$$

IAZ062-063-075>077-085>089-095>099-262000-
   SOUTHEAST IOWA

CITY           SKY/WX    TMP DP  RH WIND       PRES   REMARKS
BURLINGTON     SUNNY     46  23  40 NW17G28   30.05F
FAIRFIELD *    SUNNY     46  23  39 NW18G26   30.07F
FORT MADISON * SUNNY     46  27  46 NW17G23   30.06F
KEOKUK *       SUNNY     46  23  39 NW15G26   30.06F
OSKALOOSA *      N/A     45  27  49 NW23G30   30.09S
CENTERVILLE *  SUNNY     46  23  39 NW18G26   30.11F
OTTUMWA        MOSUNNY   47  24  40 NW20G31   30.08F
WASHINGTON *   SUNNY     46  27  46 NW21G29   30.06F
$$

ABBREVIATIONS USED IN REMARKS
   TC - TEMPERATURES IN CELSIUS
  WCI - WIND CHILL INDEX
   HX - HEAT INDEX
  VSB - VISIBILITY
$$



USA.gov is the U.S. government's official web portal to all federal, state and local government web resources and services.